Regional Weather Roundup
Issued by NWS State College, PA

Home | Current Version | Previous Version | Graphics & Text | Print | Product List | Glossary Off
Versions: 1 2 3 4 5 6 7 8 9 10 11 12 13 14 15 16 17 18 19 20 21 22 23 24 25 26 27 28 29 30 31 32 33 34 35 36 37 38 39 40 41 42 43 44 45 46 47 48 49 50

000
ASUS41 KCTP 260003
RWRCTP

REGIONAL WEATHER ROUNDUP
NATIONAL WEATHER SERVICE STATE COLLEGE PA
700 PM EST SUN FEB 25 2018

Note: "fair" indicates few or no clouds below 12,000 feet with no
significant weather and/or obstructions to visibility.

* = STATION THAT DOES NOT REPORT PRECIPITATION /E.G. RAIN...SNOW...ETC/
    THUNDER OR FOG.

PAZ002>004-007>009-013>016-020>023-029>032-260100-
WESTERN PENNSYLVANIA

CITY           SKY/WX    TMP DP  RH WIND       PRES   REMARKS
ERIE           FAIR      40  30  67 W16G24    29.99R
MEADVILLE      FAIR      43  27  53 SW13G20   29.97R
FRANKLIN*      FAIR      45  25  45 W9        29.97R
NEW CASTLE     FAIR      47  30  51 SW7       30.00R
BEAVER COUNTY  NOT AVBL
BUTLER*        FAIR      48  30  49 W12       30.00R
PITTSBURGH INT CLOUDY    49  31  49 SW6       30.01R
PITTSBURGH     FAIR      48  27  44 SW10      30.00R
INDIANA*       CLEAR     48  30  49 W10G20    30.03R
LATROBE        NOT AVBL
WASHINGTON CO* NOT AVBL
$$

PAZ004>006-010>012-017>019-024>028-033>037-041-042-045-046-049>053-260100-
CENTRAL PENNSYLVANIA

CITY           SKY/WX    TMP DP  RH WIND       PRES   REMARKS
BRADFORD       FAIR      46  24  42 VRB7      29.92R
DUBOIS         FAIR      46  23  40 W15G24    29.95R
CLEARFIELD     FAIR      49  27  42 W9        29.96R
JOHNSTOWN      FAIR      46  29  51 W13       29.98R
ALTOONA        FAIR      50  31  48 W14       29.98R
STATE COLLEGE  CLEAR     50  32  50 W9        29.97R
WILLIAMSPORT   MOCLDY    44  43  96 CALM      29.95R
SELINSGROVE    CLOUDY    47  44  90 S5        29.97R
FT INDIANTOWN  FOG       45  45 100 CALM      29.99R VSB 5/8
CAPITAL CITY   CLOUDY    49  46  90 CALM      29.98R
HARRISBURG     CLOUDY    47  44  90 CALM      29.98R
YORK           FAIR      47  47 100 CALM      29.98R
$$

PAZ038>040-043-044-047-048-054-055-060>062-067>071-260100-
EASTERN PENNSYLVANIA

CITY           SKY/WX    TMP DP  RH WIND       PRES   REMARKS
SCRANTON       CLOUDY    46  44  93 CALM      29.95R
MOUNT POCONO   FOG       39  39 100 CALM      29.94R VSB 1/4
ALLENTOWN      CLOUDY    46  42  86 CALM      29.98R
QUAKERTOWN*    CLOUDY    45  45 100 CALM      29.98R FOG
READING        CLOUDY    46  46 100 NW5       29.99R
LANCASTER      CLOUDY    47  45  93 CALM      29.99R
COATESVILLE    CLOUDY    46  45  93 CALM      29.99R FOG
POTTSTOWN      CLOUDY    44  44 100 CALM      29.99R
BLUE BELL      FAIR      43  43 100 CALM      30.00R
DOYLESTOWN     FOG       43  43 100 CALM      29.97R VSB 3/4
WILLOW GROVE   NOT AVBL
NORTH PHILA    CLOUDY    48  44  86 CALM      30.00R
PHILADELPHIA   CLOUDY    46  44  93 SE3       30.00R
$$



USA.gov is the U.S. government's official web portal to all federal, state and local government web resources and services.